カタログに戻る

STARLINK-32170

運用中通信VLEO
NORAD 60591·PAYLOAD·🇺🇸 United States

打ち上げ Aug 20, 2024 から Cape Canaveral Space Force Station

Loading…

次のパス (今後24時間)

TLE

最新Source: CelesTrak SupGP

元期: Sep 14, 2026, 22:39 UTC

1 60591C 24150J   26257.94423611 -.00072855  00000+0 -21523-2 0  2575
2 60591  53.1576 147.3340 0001347  96.8078 347.9414 15.34430777    19

AllMySatでSTARLINK-32170をリアルタイム追跡

Download on the App Store